Location: Asheville, NC
(35.6000°N, 82.5500°W)
Time: 23:08:32
(UTC-04:00)

HO-68 - Visible Passes

Search period start: 23 April 2018 00:00
Search period end: 03 May 2018 00:00
Orbit: 1193 x 1204 km, 100.1° (Epoch: 23 April)

Date Brightness Start Highest point End Pass type
(mag) Time Alt. Az. Time Alt. Az. Time Alt. Az.
23 Apr ? 21:16:43 10° WSW 21:20:29 15° W 21:24:18 10° WNW visible
24 Apr ? 20:58:13 10° SW 21:03:22 21° W 21:08:33 10° NW visible
25 Apr ? 20:40:16 10° SSW 20:46:16 28° W 20:52:19 10° NW visible
29 Apr ? 21:23:56 10° WSW 21:26:50 13° W 21:29:44 10° WNW visible
30 Apr ? 21:05:01 10° SW 21:09:39 18° W 21:14:22 10° NW visible
01 May ? 20:46:52 10° SSW 20:52:33 25° W 20:58:17 10° NW visible
